User: anonymous   Login
Location: Strawberry
(45.6646°N, 111.9596°W)
Time: 15:11:35
(UTC+00:00)
Language:

Altair - Orbit

View from above orbital plane
View from above orbital plane
View from above satellite
View from above satellite

Ground track
Ground track

The orbit data is extracted from the following two-line orbital elements,

1    50U 60009B   22269.13866008 -.00000061  00000-0  22624-3 0  9990
2    50  47.2322  63.0877 0113452 281.3430  77.4631 12.20122216772097
Epoch (UTC): 26 September 2022 03:19:40
Eccentricity: 0.0113452
inclination: 47.2322°
perigee height: 1501 km
apogee height: 1682 km
right ascension of ascending node: 63.0877°
argument of perigee: 281.3430°
revolutions per day: 12.20122216
mean anomaly at epoch: 77.4631°
orbit number at epoch: 77209

The dashed part of the orbit path shows where the satellite is in the earth's shadow,  

DLR